Location: Newark
(47.5833°N, 8.1500°E)
Time: 18:48:24
(UTC+00:00)

Transit 2A - Pass Details

Date: 31 October 2020
Orbit: 595 x 964 km, 66.7° (Epoch: 01 December)

Event Time Altitude Azimuth Distance (km) Brightness Sun altitude
Rises 05:08:37 0° 318° (NW) 3,580 - -10.9°
Exits shadow 05:09:42 - 323° (NW) 3,281 8.8 -10.7°
Reaches altitude 10° 05:12:55 10° 346° (NNW) 2,567 8.5 -10.2°
Maximum altitude 05:15:31 13° 12° (NNE) 2,315 8.5 -9.7°
Drops below altitude 10° 05:18:02 10° 38° (NE) 2,463 9.0 -9.3°
Sets 05:21:58 0° 66° (ENE) 3,301 10.3 -8.7°
